Home   Weather   Greenwich Point   Past weeks
Flag for USA

Past Weather in Greenwich Point, Pennsylvania, USA — Yesterday and Last 2 Weeks

Now
85 °F

Scattered clouds.


Feels Like: 85 °F
Forecast: 87 / 68 °F
Wind: 8 mph from Northwest

Location: Philadelphia International Airport

Current Time: Jul 13, 2020 at 8:37:09 pm

Latest Report: Jul 13, 2020 at 7:54 pm


Visibility: 10 mi

Pressure: 29.85 "Hg

Humidity: 43%

Dew Point: 60 °F

Location of Greenwich PointLocation

Past Weather in Greenwich Point — Graph

°F

Greenwich Point Temperature Yesterday

Maximum temperature yesterday: 90 °F (at 2:54 pm)
Minimum temperature yesterday: 72 °F (at 5:54 am)
Average temperature yesterday: 82 °F

High & Low Weather Summary for the Past Weeks

 TemperatureHumidityPressure
High97 °F (Jul 3, 1:54 pm)97% (Jul 10, 11:08 am)30.09 "Hg (Jul 10, 11:08 am)
Low68 °F (Jul 7, 4:54 am)23% (Jul 3, 3:54 pm)29.60 "Hg (Jul 10, 6:54 pm)
Average80 °F68%29.88 "Hg
* Reported Jun 28 6:54 pm — Jul 13 6:54 pm, Greenwich Point. Weather by CustomWeather, © 2020

Note: Actual official high and low records may vary slightly from our data, if they occured in-between our weather recording intervals... More about our weather records

Greenwich Point Weather History for the Previous 24 Hours

Scroll right to see more
 ConditionsComfort  
Time TempWeatherWind HumidityBarometerVisibility
6:54 pm
Mon, Jul 13
86 °FScattered clouds.9 mph40%29.83 "Hg10 mi
5:54 pm87 °FPassing clouds.9 mph37%29.82 "Hg10 mi
4:54 pm87 °FPassing clouds.12 mph39%29.81 "Hg10 mi
3:54 pm88 °FPassing clouds.14 mph38%29.82 "Hg10 mi
2:54 pm87 °FPassing clouds.13 mph39%29.82 "Hg10 mi
1:54 pm85 °FScattered clouds.8 mph43%29.82 "Hg10 mi
12:54 pm84 °FBroken clouds.9 mph46%29.83 "Hg10 mi
11:54 am82 °FPartly sunny.8 mph51%29.83 "Hg10 mi
10:54 am80 °FPartly sunny.8 mph54%29.83 "Hg10 mi
9:54 am77 °FPartly sunny.12 mph66%29.82 "Hg10 mi
8:54 am75 °FPartly sunny.8 mph76%29.81 "Hg10 mi
7:54 am74 °FPartly sunny.7 mph79%29.81 "Hg10 mi
6:54 am72 °FPartly sunny.5 mph81%29.80 "Hg10 mi
5:54 am71 °FScattered clouds.No wind87%29.79 "Hg10 mi
4:54 am71 °FPassing clouds.7 mph90%29.78 "Hg10 mi
3:54 am72 °FPassing clouds.6 mph91%29.77 "Hg10 mi
2:54 am73 °FPassing clouds.No wind88%29.76 "Hg10 mi
1:54 am72 °FOvercast.3 mph91%29.78 "Hg10 mi
1:36 am72 °FOvercast.3 mph91%29.79 "Hg10 mi
1:12 am72 °FLight rain. Mostly cloudy.7 mph91%29.80 "Hg7 mi
12:54 am73 °FMostly cloudy.No wind84%29.81 "Hg7 mi
11:54 pm
Sun, Jul 12
75 °FOvercast.10 mph79%29.79 "Hg10 mi
10:54 pm78 °FLight rain. Mostly cloudy.10 mph69%29.79 "Hg10 mi
9:54 pm82 °FMostly cloudy.3 mph60%29.77 "Hg10 mi
8:54 pm83 °FPassing clouds.6 mph59%29.75 "Hg10 mi
Weather by CustomWeather, © 2020

See weather overview